Home   Weather   Fosnavåg   Past weeks

Flag for Norway Past Weather in Fosnavåg, Norway — Yesterday and Last 2 Weeks

Now
43 °F

Quite cool.


Feels Like: 42 °F
Forecast: 42 / 52 °F
Wind: 3 mph from South

Location: Svinoy Fyr

Current Time: May 1, 2017 at 6:27:53 am

Latest Report: May 1, 2017 at 5:00 am


Visibility: N/A

Pressure: 30.17 "Hg

Humidity: 79%

Dew Point: 37 °F

Location of FosnavågLocation

Past Weather in Fosnavåg — Graph

°F

Fosnavåg Temperature Yesterday

Maximum temperature yesterday: 47 °F (at 3:00 pm)
Minimum temperature yesterday: 42 °F (at 6:00 am)
Average temperature yesterday: 45 °F

High & Low Weather Summary for the Past Weeks

 TemperatureHumidityPressure
High49 °F (Apr 29, 4:00 pm)96% (Apr 20, 10:00 am)30.50 "Hg (Apr 20, 10:00 am)
Low33 °F (Apr 24, 4:00 am)45% (Apr 29, 8:00 am)29.61 "Hg (Apr 24, 6:00 pm)
Average40 °F73%29.99 "Hg
* Reported Apr 16 4:00 am — May 1 4:00 am, Fosnavåg, Weather by CustomWeather, © 2017

Note: Actual official high and low records may vary slightly from our data, if they occured in-between our weather recording intervals... More about our weather records

Advertising

Fosnavåg Weather History for the Previous 24 Hours

Scroll right to see more
 ConditionsComfort  
Time TempWeatherWind HumidityBarometerVisibility
4:00 am
Mon, May 1
43 °FQuite cool.5 mph76%30.16 "HgN/A
3:00 am43 °FQuite cool.5 mph77%30.16 "HgN/A
2:00 am42 °FQuite cool.3 mph80%30.15 "HgN/A
1:00 am43 °FQuite cool.3 mph81%30.15 "HgN/A
12:00 am43 °FQuite cool.3 mph82%30.14 "HgN/A
9:00 pm
Sun, Apr 30
44 °FQuite cool.5 mph74%30.14 "HgN/A
8:00 pm45 °FQuite cool.3 mph66%30.13 "HgN/A
7:00 pm45 °FCool.3 mph63%30.13 "HgN/A
6:00 pm46 °FCool.3 mph62%30.14 "HgN/A
5:00 pm46 °FCool.2 mph62%30.14 "HgN/A
4:00 pm46 °FCool.2 mph65%30.14 "HgN/A
3:00 pm47 °FCool.3 mph67%30.15 "HgN/A
2:00 pm46 °FCool.2 mph72%30.15 "HgN/A
1:00 pm46 °FCool.2 mph68%30.14 "HgN/A
12:00 pm46 °FCool.1 mph64%30.15 "HgN/A
11:00 am46 °FCool.1 mph70%30.15 "HgN/A
10:00 am46 °FCool.2 mph67%30.16 "HgN/A
9:00 am44 °FQuite cool.2 mph71%30.16 "HgN/A
8:00 am44 °FQuite cool.3 mph70%30.16 "HgN/A
7:00 am43 °FQuite cool.2 mph76%30.16 "HgN/A
6:00 am42 °FQuite cool.3 mph77%30.16 "HgN/A
Weather by CustomWeather, © 2017

See weather overviewHow to use our weather pages